Date String (YYYY-MM-DD hh:mm:ss) UTC,Instrument flags,Ambient pressure (hPa),Sample flow (lpm),Bypass flow (lpm),Sample temperature (°C),Ambient temperature (°C),ASC tube jacket temperature (°C),LED temperature (°C),Box temperature (°C),Sample RH (%),Span deviation,Mass concentration (μg/m³),Mass concentration (μg/m³),Mass concentration (μg/m³)
DateTimeUTC,F1_M11,P_M11,Q1_M11,Q2_M11,T1_M11,T2_M11,T3_M11,T4_M11,T5_M11,U1_M11,ZSPAN_M11,X0_M11,X2_M11,X1_M11
2023-05-05 19:00:00,,0822.9,5.02,0.00,29.8,28.3,00.0,38.2,31.4,16.2,0000.0,0014.54,0004.91,0003.37
2023-05-05 19:01:00,,0822.9,4.99,0.00,29.9,28.4,00.0,38.2,31.4,16.3,0000.0,0015.02,0004.97,0003.37
2023-05-05 19:02:00,,0822.9,4.99,0.00,29.9,28.5,00.0,38.2,31.5,15.6,0000.0,0014.84,0004.98,0003.37
2023-05-05 19:03:00,,0822.9,5.02,0.00,29.9,28.6,00.0,38.2,31.5,15.4,0000.0,0014.59,0005.00,0003.39
2023-05-05 19:04:00,,0822.9,5.00,0.00,30.0,28.7,00.0,38.2,31.6,15.6,0000.0,0013.88,0004.98,0003.39
2023-05-05 19:05:00,,0822.9,4.99,0.00,30.0,28.7,00.0,38.2,31.6,15.3,0000.0,0013.84,0004.96,0003.40
2023-05-05 19:06:00,,0823.0,4.99,0.00,30.0,28.8,00.0,38.2,31.6,15.4,0000.0,0013.84,0004.97,0003.42
2023-05-05 19:07:00,,0822.9,5.02,0.00,30.0,28.9,00.0,38.3,31.7,15.5,0000.0,0013.71,0005.01,0003.45
2023-05-05 19:08:00,,0822.9,4.99,0.00,30.1,28.9,00.0,38.3,31.7,15.4,0000.0,0013.15,0005.04,0003.49
2023-05-05 19:09:00,,0822.9,5.00,0.00,30.1,28.9,00.0,38.3,31.7,15.5,0000.0,0013.11,0005.04,0003.51
2023-05-05 19:10:00,,0822.8,5.00,0.00,30.1,29.0,00.0,38.3,31.8,15.6,0000.0,0013.43,0005.06,0003.54
2023-05-05 19:11:00,,0822.9,5.00,0.00,30.2,28.2,00.0,38.3,31.7,15.6,0000.0,0013.93,0005.07,0003.54
2023-05-05 19:12:00,,0822.8,5.00,0.00,30.1,26.6,00.0,38.2,31.5,15.5,0000.0,0013.41,0004.98,0003.54
2023-05-05 19:13:00,,0822.8,5.00,0.00,30.0,26.3,00.0,38.2,31.3,15.4,0000.0,0013.54,0004.96,0003.54
2023-05-05 19:14:00,,0822.8,5.01,0.00,29.9,26.5,00.0,38.2,31.2,15.4,0000.0,0013.70,0004.99,0003.53
2023-05-05 19:15:00,,0822.8,5.00,0.00,29.9,26.8,00.0,38.2,31.2,15.6,0000.0,0013.49,0005.02,0003.54
2023-05-05 19:16:00,,0822.7,4.99,0.00,29.9,27.2,00.0,38.2,31.3,15.5,0000.0,0013.23,0005.00,0003.51
2023-05-05 19:17:00,,0822.8,5.01,0.00,29.9,27.5,00.0,38.2,31.3,15.5,0000.0,0013.50,0004.96,0003.50
2023-05-05 19:18:00,,0822.8,5.00,0.00,29.9,27.7,00.0,38.3,31.4,15.3,0000.0,0013.26,0004.96,0003.49
2023-05-05 19:19:00,,0822.7,5.00,0.00,29.9,28.0,00.0,38.3,31.4,15.3,0000.0,0013.34,0004.96,0003.49
2023-05-05 19:20:00,,0822.7,4.99,0.00,29.9,28.2,00.0,38.3,31.5,15.0,0000.0,0013.63,0004.95,0003.48
2023-05-05 19:21:00,,0822.7,5.01,0.00,30.0,28.3,00.0,38.3,31.5,15.0,0000.0,0014.41,0004.98,0003.49
2023-05-05 19:22:00,,0822.8,5.00,0.00,30.0,28.4,00.0,38.3,31.5,14.9,0000.0,0014.47,0005.10,0003.49
2023-05-05 19:23:00,,0822.7,4.99,0.00,30.0,28.6,00.0,38.3,31.6,15.0,0000.0,0015.13,0005.22,0003.52
2023-05-05 19:24:00,,0822.7,5.01,0.00,30.0,28.7,00.0,38.3,31.6,15.0,0000.0,0015.65,0005.27,0003.53
2023-05-05 19:25:00,,0822.7,5.01,0.00,30.1,28.8,00.0,38.3,31.6,15.0,0000.0,0015.24,0005.25,0003.54
2023-05-05 19:26:00,,0822.7,5.00,0.00,30.1,28.8,00.0,38.3,31.7,15.0,0000.0,0015.47,0005.27,0003.54
2023-05-05 19:27:00,,0822.8,5.00,0.00,30.1,28.9,00.0,38.4,31.7,15.0,0000.0,0015.87,0005.33,0003.55
2023-05-05 19:28:00,,0822.7,4.99,0.00,30.2,28.3,00.0,38.3,31.7,14.9,0000.0,0015.22,0005.34,0003.54
2023-05-05 19:29:00,,0822.6,5.00,0.00,30.1,26.2,00.0,38.2,31.4,15.2,0000.0,0015.05,0005.33,0003.53
2023-05-05 19:30:00,,0822.9,5.00,0.00,30.0,25.3,00.0,38.1,31.1,15.5,0000.0,0014.84,0005.30,0003.49
2023-05-05 19:31:00,,0822.6,5.02,0.00,29.9,25.4,00.0,38.1,31.0,15.7,0000.0,0015.07,0005.25,0003.46
2023-05-05 19:32:00,,0822.6,5.00,0.00,29.8,25.8,00.0,38.1,31.0,15.8,0000.0,0014.02,0005.17,0003.44
2023-05-05 19:33:00,,0822.5,4.99,0.00,29.7,26.2,00.0,38.1,31.0,15.0,0000.0,0014.11,0005.05,0003.42
2023-05-05 19:34:00,,0822.5,5.01,0.00,29.7,26.6,00.0,38.1,31.0,15.5,0000.0,0013.53,0004.89,0003.38
2023-05-05 19:35:00,,0822.4,5.00,0.00,29.7,27.0,00.0,38.1,31.1,15.6,0000.0,0013.16,0004.82,0003.34
2023-05-05 19:36:00,,0822.4,5.00,0.00,29.7,27.3,00.0,38.1,31.2,15.3,0000.0,0013.01,0004.81,0003.30
2023-05-05 19:37:00,,0822.4,4.99,0.00,29.7,27.6,00.0,38.1,31.2,15.6,0000.0,0012.83,0004.77,0003.27
2023-05-05 19:38:00,,0822.4,4.99,0.00,29.7,27.8,00.0,38.1,31.2,15.3,0000.0,0012.83,0004.74,0003.25
2023-05-05 19:39:00,,0822.4,5.01,0.00,29.8,28.0,00.0,38.1,31.3,14.9,0000.0,0013.81,0004.75,0003.25
2023-05-05 19:40:00,,0822.5,5.00,0.00,29.8,28.1,00.0,38.1,31.3,15.0,0000.0,0014.95,0004.78,0003.24
2023-05-05 19:41:00,,0822.4,4.99,0.00,29.8,28.3,00.0,38.1,31.4,15.0,0000.0,0015.97,0004.77,0003.25
2023-05-05 19:42:00,,0822.4,5.01,0.00,29.8,28.4,00.0,38.1,31.4,15.5,0000.0,0015.84,0004.83,0003.26
2023-05-05 19:43:00,,0822.5,5.01,0.00,29.9,28.5,00.0,38.1,31.5,15.6,0000.0,0016.11,0004.85,0003.24
2023-05-05 19:44:00,,0822.4,4.99,0.00,29.9,28.6,00.0,38.2,31.5,15.1,0000.0,0015.70,0004.92,0003.23
2023-05-05 19:45:00,,0822.4,5.00,0.00,29.9,28.6,00.0,38.2,31.6,15.3,0000.0,0016.45,0005.02,0003.24
2023-05-05 19:46:00,,0822.4,5.00,0.00,30.0,28.7,00.0,38.2,31.6,15.5,0000.0,0016.12,0005.01,0003.24
2023-05-05 19:47:00,,0822.4,5.01,0.00,30.0,28.7,00.0,38.2,31.6,15.5,0000.0,0016.73,0004.97,0003.25
2023-05-05 19:48:00,,0822.4,5.01,0.00,30.0,28.8,00.0,38.2,31.7,15.2,0000.0,0016.98,0004.95,0003.27
2023-05-05 19:49:00,,0822.4,5.00,0.00,30.0,28.8,00.0,38.3,31.7,15.3,0000.0,0017.12,0004.98,0003.26
2023-05-05 19:50:00,,0822.4,5.00,0.00,30.1,28.9,00.0,38.3,31.7,15.1,0000.0,0016.03,0004.96,0003.25
2023-05-05 19:51:00,,0822.4,5.00,0.00,30.1,28.1,00.0,38.2,31.7,15.3,0000.0,0014.70,0004.89,0003.25
2023-05-05 19:52:00,,0822.4,5.00,0.00,30.0,26.4,00.0,38.2,31.4,15.1,0000.0,0014.48,0004.90,0003.26
2023-05-05 19:53:00,,0822.4,5.01,0.00,30.0,26.2,00.0,38.1,31.3,15.1,0000.0,0014.62,0004.90,0003.26
2023-05-05 19:54:00,,0822.3,5.01,0.00,29.9,26.4,00.0,38.1,31.1,15.5,0000.0,0014.43,0004.88,0003.27
2023-05-05 19:55:00,,0822.3,4.99,0.00,29.8,26.7,00.0,38.2,31.1,15.3,0000.0,0014.53,0004.79,0003.26
2023-05-05 19:56:00,,0822.3,4.99,0.00,29.8,27.0,00.0,38.2,31.2,15.5,0000.0,0014.10,0004.73,0003.25
2023-05-05 19:57:00,,0822.3,5.00,0.00,29.8,27.3,00.0,38.2,31.2,15.4,0000.0,0014.54,0004.74,0003.25
2023-05-05 19:58:00,,0822.3,5.00,0.00,29.8,27.6,00.0,38.2,31.3,15.7,0000.0,0014.62,0004.78,0003.24
2023-05-05 19:59:00,,0822.4,4.99,0.00,29.8,27.8,00.0,38.2,31.3,15.5,0000.0,0015.24,0004.82,0003.23
